Tracking 25954 objects as of 14-Aug-2022
HD Live streaming from Space Station
objects crossing your sky now

SL-14 R/B

Track SL-14 R/B now!
10-day predictions
SL-14 R/B is classified as:


NORAD ID: 18153
Int'l Code: 1987-055B
Perigee: 610.4 km
Apogee: 640.5 km
Inclination: 82.5 °
Period: 97.1 minutes
Semi major axis: 6996 km
RCS: 4.7715 m2 (large)
Launch date: July 1, 1987
Source: Commonwealth of Independent States (former USSR) (CIS)
Launch site: PLESETSK MISSILE AND SPACE COMPLEX (PKMTR)

Note: This is a ROCKET BODY
aabbcc
Your satellite tracking list
Your tracking list is empty




NASA's NSSDC Master Catalog

Two Line Element Set (TLE):
1 18153U 87055B   22226.21609618  .00000262  00000-0  28826-4 0  9990
2 18153  82.5018 135.4229 0021552   0.5038 359.6195 14.83491413876569
Source of the keplerian elements: AFSPC